Wind_Speed
8 9 9 10 10 10 10 9 10 12 13 14 15 16 16 16 16 15 15 16 17 18 20 20 19 18 18 17 18 18 18 18 19 19 20 20 20 21 21 21 21 21 21 21 20 20 20 20 20 21 21 21 22 22 22 22 22 23 23 23 23 23 23 23 23 23 23 22 22 22 22 22 22 23 23 23 23 24 24 24 24 24 24 24 24 24
9 10 10 10 10 10 11 11 12 13 15 16 16 17 16 16 16 15 16 17 18 19 20 20 19 18 18 18 19 20 19 19 20 20 20 21 21 21 22 22 21 21 21 21 20 20 20 21 21 21 22 22 22 22 23 23 23 23 23 23 23 23 23 23 22 22 22 22 22 22 22 22 22 22 22 22 23 23 23 23 23 23 24 24 24 24
10 10 10 10 10 11 11 13 13 14 15 16 16 16 16 16 16 16 17 18 19 19 19 18 18 18 18 19 20 21 21 21 21 21 21 22 22 22 22 22 22 21 21 21 21 21 21 21 22 22 22 23 23 23 23 23 23 23 23 23 23 23 22 22 22 22 22 22 21 21 21 21 22 22 22 22 22 22 22 22 23 23 23 23 23 24
9 10 11 11 11 11 12 13 14 15 15 15 15 15 15 15 16 17 18 19 19 18 17 17 17 18 19 20 21 22 22 21 21 22 22 22 23 23 22 22 22 21 21 21 21 21 22 22 22 23 23 23 23 23 23 23 23 23 23 23 23 22 22 22 22 21 21 21 21 21 21 21 21 21 21 21 22 22 22 22 22 22 22 23 23 23
9 10 11 12 12 12 12 13 14 15 15 14 14 15 15 15 16 17 18 18 17 17 16 16 16 17 18 20 22 22 22 22 22 22 23 23 23 23 22 22 22 21 21 21 21 22 22 23 23 23 23 24 24 24 24 23 23 23 23 22 22 22 22 22 21 21 20 20 20 20 20 21 21 21 21 21 21 21 21 21 22 22 22 22 23 23
9 9 11 11 11 12 12 13 13 14 14 14 14 15 15 16 17 17 17 17 16 16 15 16 16 17 19 20 22 22 23 23 23 23 23 23 22 22 22 22 21 21 21 21 22 22 22 23 23 23 24 24 24 24 23 23 23 23 22 22 22 22 21 21 21 20 20 20 20 20 20 20 21 21 21 21 21 21 22 22 22 22 22 23 23 23
9 10 10 11 11 11 11 12 12 13 14 15 15 16 16 16 16 16 16 15 15 15 16 16 17 18 20 21 22 23 23 24 23 23 22 22 21 21 21 21 21 21 21 21 22 22 22 23 23 23 24 24 24 23 23 23 23 22 22 22 22 21 21 21 20 20 20 20 20 20 21 21 21 21 21 22 22 22 22 22 22 23 23 23 23 23
9 10 10 10 11 11 11 11 11 12 13 15 16 17 17 16 16 15 14 14 14 15 16 18 19 20 21 22 23 23 24 24 24 23 22 21 20 20 20 20 20 21 21 21 22 22 23 23 23 23 24 24 23 23 23 23 22 22 22 22 21 21 21 20 20 20 20 21 21 21 21 22 22 22 22 22 22 22 23 23 23 23 23 23 23 24
10 10 10 10 10 11 11 11 11 12 13 15 16 16 17 16 15 15 14 14 15 16 17 18 19 20 22 23 24 24 24 23 22 21 20 20 20 20 20 20 20 20 21 22 22 23 23 23 24 24 24 24 23 23 23 23 22 22 22 21 21 21 21 21 21 21 21 21 22 22 22 22 23 23 23 23 23 23 23 23 23 23 24 24 24 24
9 10 10 10 10 10 11 12 12 13 13 14 15 15 15 15 15 16 16 16 16 17 17 18 19 21 23 24 25 25 24 22 21 20 19 19 19 20 20 20 21 21 22 22 23 23 24 24 24 24 24 24 23 23 23 22 22 22 21 21 21 21 21 21 22 22 22 23 23 23 23 23 23 23 23 23 23 24 24 24 24 24 24 24 24 24
9 10 10 10 10 10 11 12 13 13 14 14 14 13 13 13 15 16 17 18 18 19 18 19 19 21 23 24 25 25 23 23 22 21 20 20 20 20 20 21 22 22 23 23 24 24 24 24 24 24 23 23 23 23 22 22 22 22 21 21 21 21 22 22 23 23 24 24 24 24 24 24 24 24 24 24 24 24 24 24 24 24 24 24 24 25
9 9 9 9 10 11 12 13 13 14 14 14 13 12 12 13 15 16 17 18 19 20 20 21 21 22 23 24 24 24 23 22 22 22 21 20 20 21 22 22 23 24 24 25 25 25 25 24 24 23 23 23 22 22 22 22 22 22 21 22 22 22 23 24 24 24 24 24 24 24 24 24 24 24 24 24 24 24 24 25 25 25 25 25 25 25
10 10 10 10 11 12 13 13 14 14 13 13 12 12 13 15 16 17 17 17 19 20 21 21 22 22 23 23 22 22 22 22 22 21 21 20 21 22 23 24 25 26 26 26 26 26 25 24 23 23 22 22 22 22 22 22 22 22 22 22 23 24 24 24 25 25 25 25 25 24 24 24 24 24 24 25 25 25 25 25 25 25 25 25 25 25
11 11 11 11 12 12 13 13 13 13 12 12 12 13 15 16 17 18 18 18 19 20 21 21 21 21 21 21 20 20 20 21 22 21 21 21 22 23 24 25 26 26 26 26 25 25 24 24 23 23 23 23 23 23 22 22 22 22 23 24 24 25 25 25 25 25 25 25 25 25 25 25 25 25 25 25 25 25 25 25 25 25 25 25 26 26
11 11 11 11 11 12 13 13 13 13 13 13 14 15 16 17 18 18 18 18 19 21 21 20 20 20 19 18 17 18 18 20 21 22 22 22 23 23 24 25 26 26 25 25 24 24 24 23 23 23 23 23 23 23 22 23 23 24 24 25 25 26 26 26 26 26 26 26 26 26 26 26 26 25 25 25 25 25 25 25 25 25 25 26 26 26
11 11 10 11 11 12 13 13 13 13 14 14 15 16 17 17 18 18 18 18 19 19 19 19 19 18 18 17 16 16 17 20 21 22 22 23 24 24 24 25 25 25 24 24 24 24 23 23 23 23 23 23 23 23 23 23 24 25 25 26 26 26 26 26 26 27 27 26 26 26 26 26 26 26 26 26 25 25 25 25 25 25 25 26 26 26
11 10 10 11 12 12 13 13 13 14 14 15 15 16 16 17 18 18 18 18 18 18 17 16 15 14 15 17 17 17 18 21 22 23 23 23 24 24 23 24 24 23 23 23 23 23 23 22 22 23 23 23 23 23 24 24 25 26 26 26 27 27 27 27 27 27 27 27 27 27 26 26 26 26 26 26 26 26 26 26 26 26 26 26 26 26
10 10 11 11 12 13 14 14 14 14 14 15 16 17 17 17 18 18 17 17 17 16 16 16 14 13 13 16 18 19 21 23 23 24 24 23 24 23 23 22 22 22 23 23 22 22 22 22 22 23 23 23 23 24 24 25 25 26 26 27 27 28 28 28 28 28 28 28 27 27 27 27 26 26 26 26 26 26 26 26 26 26 26 26 26 26
11 11 11 11 12 13 14 14 13 14 14 15 17 17 18 18 18 17 17 16 16 16 16 16 16 16 16 18 21 22 23 24 24 23 23 23 23 23 22 21 21 21 22 22 22 22 22 22 23 24 24 24 24 24 25 25 26 26 27 27 28 28 29 29 29 29 28 28 28 27 27 27 27 27 27 27 27 27 26 26 26 26 26 26 26 27
11 11 11 12 12 13 14 14 13 14 14 16 17 17 17 17 17 17 17 16 16 16 16 16 17 17 19 20 23 24 24 24 23 23 22 22 22 22 21 20 21 21 21 22 22 22 22 23 24 24 24 24 24 24 25 25 26 27 28 28 29 29 29 29 29 29 29 28 28 28 27 27 27 27 27 27 27 27 27 27 27 27 27 27 27 27
11 12 12 12 12 13 13 14 14 15 15 16 17 17 16 16 16 16 16 16 16 16 16 16 17 18 19 21 23 24 24 24 23 22 21 21 22 21 21 20 20 21 22 23 22 22 22 23 24 24 24 24 24 24 25 26 27 28 28 29 29 29 29 29 29 29 28 28 28 27 27 27 27 27 28 28 28 28 28 28 28 28 28 28 28 28
11 12 13 13 13 14 15 16 17 17 17 16 16 16 15 15 15 16 16 17 16 16 17 17 18 19 20 21 23 24 24 23 22 21 21 20 21 22 21 20 21 22 22 23 23 22 22 23 23 24 24 24 24 25 26 27 27 28 28 29 29 29 29 29 28 28 28 28 28 28 28 28 28 28 29 29 29 28 28 28 28 28 28 28 28 28
12 14 14 14 15 15 16 18 18 18 17 16 16 16 16 16 17 17 18 17 17 17 18 19 20 21 21 21 22 22 22 21 20 20 19 17 19 21 21 21 21 22 22 23 23 23 23 23 24 24 24 24 25 25 26 27 27 28 28 28 28 28 28 28 28 28 28 28 29 29 29 29 30 29 29 29 29 29 29 28 28 28 28 28 28 28
14 14 15 15 15 16 17 17 18 18 17 17 18 18 19 19 19 19 19 18 18 18 19 20 20 20 20 20 20 20 19 18 18 18 17 17 19 21 22 21 21 22 23 23 23 23 24 24 25 25 25 25 26 26 26 26 26 27 27 27 27 27 27 28 28 28 29 30 30 30 30 30 30 30 29 29 29 29 28 28 28 28 28 28 28 28
14 15 15 16 17 17 18 18 18 18 18 18 19 19 19 19 19 18 18 18 18 18 18 18 18 17 18 18 18 18 18 17 17 17 17 17 19 22 22 21 21 22 23 24 24 24 25 25 25 25 25 25 26 25 25 25 25 25 25 26 27 27 28 29 29 30 31 31 31 31 31 31 30 30 29 29 29 29 28 28 28 28 29 29 29 29
14 15 16 17 17 18 18 18 18 18 18 19 18 18 18 18 18 17 17 16 15 15 16 15 15 16 17 17 17 17 18 17 17 17 17 17 19 21 21 20 20 22 24 25 25 25 25 25 26 25 25 25 25 24 23 23 23 24 25 26 27 28 29 30 31 32 32 32 32 32 31 31 30 30 29 29 29 29 29 29 29 29 29 29 30 29
14 15 16 16 17 17 17 18 18 18 18 17 17 17 17 17 16 15 14 14 13 13 13 13 14 15 16 16 16 17 19 19 18 17 17 17 18 19 20 20 21 23 25 26 26 25 25 25 25 25 24 25 24 23 22 22 22 23 25 27 28 30 31 32 33 33 32 32 32 31 31 30 30 30 30 29 29 29 29 29 29 29 29 29 29 29
14 14 15 15 16 16 16 16 16 16 16 15 15 14 14 14 14 13 13 13 13 13 13 13 13 13 14 15 17 19 20 19 18 17 16 16 16 17 20 21 22 23 25 26 26 26 24 23 23 23 23 23 22 21 21 22 23 25 27 29 31 32 32 32 32 32 31 31 31 31 31 30 30 30 30 29 29 29 29 29 29 29 29 29 28 28
15 15 14 15 15 15 15 15 14 14 14 14 13 13 12 13 13 13 14 14 14 13 13 14 14 14 15 17 19 20 20 18 16 15 16 16 16 18 20 21 22 22 23 25 27 26 23 21 20 19 20 20 20 21 22 24 26 28 29 31 31 31 31 31 30 30 30 30 30 30 30 30 30 30 30 29 29 29 29 29 29 29 28 28 27 27
15 15 15 15 14 14 13 13 13 13 13 13 13 12 12 12 13 14 15 15 14 14 14 15 15 16 16 17 17 16 15 15 14 14 16 17 17 19 21 21 21 21 21 21 20 19 20 21 19 16 17 19 21 23 24 26 28 29 30 30 30 29 29 29 29 29 29 30 30 30 30 30 30 30 29 29 29 29 29 29 28 28 28 27 27 27
16 15 15 15 14 13 13 12 12 12 12 12 12 12 12 12 13 14 14 14 14 15 15 15 16 16 16 15 11 8 9 15 17 16 18 18 18 19 20 20 20 20 19 17 12 8 12 18 20 20 19 21 23 25 25 26 27 27 28 28 28 28 28 28 28 28 28 29 29 29 29 29 29 30 30 30 29 29 29 29 28 27 27 27 26 27
15 15 15 14 14 13 12 12 12 12 12 12 12 12 12 12 12 13 13 14 14 15 15 15 16 17 16 15 12 10 13 19 20 20 19 18 18 19 19 19 20 20 19 18 15 11 9 12 20 26 25 25 25 25 25 25 25 26 27 27 28 28 28 27 27 27 28 28 28 29 29 29 29 29 29 29 29 29 29 28 27 27 26 26 26 26
14 14 14 14 13 13 12 12 12 12 12 12 12 12 12 12 12 12 13 13 14 14 15 16 16 17 17 18 17 18 20 22 22 20 19 17 17 18 19 20 20 21 21 20 19 18 15 17 23 28 29 27 25 25 25 25 25 25 26 27 28 28 28 28 27 27 28 28 29 29 30 29 29 29 29 29 29 28 28 27 26 26 25 25 26 26
14 14 14 13 13 13 13 13 13 13 13 13 13 12 12 12 13 13 14 14 15 15 16 17 17 18 18 18 19 20 21 22 20 19 17 17 18 19 21 21 21 21 21 21 20 20 20 22 24 26 26 28 27 26 25 25 25 25 26 26 27 28 29 28 28 28 29 30 30 30 30 30 30 29 29 29 28 27 27 26 26 26 25 26 26 26
13 14 14 13 13 13 13 13 14 14 14 13 13 13 13 14 14 15 15 16 16 17 17 18 18 18 18 19 19 20 21 22 21 20 19 19 19 20 21 21 21 21 20 21 21 20 20 22 24 25 24 27 28 28 26 24 24 25 26 26 27 28 28 29 29 29 30 30 30 30 30 30 30 29 29 28 28 27 27 27 27 27 27 27 27 27
13 14 14 13 14 14 14 14 15 15 14 14 14 14 15 15 16 16 17 17 17 18 18 18 19 19 20 20 21 22 23 24 24 23 21 21 21 21 21 22 22 22 21 21 21 21 21 22 25 26 25 24 25 27 27 26 26 26 26 27 27 28 28 29 29 29 30 29 29 30 29 29 29 29 29 28 28 28 28 29 29 29 29 28 28 28
13 14 13 13 13 14 14 15 15 15 15 15 15 16 16 17 17 17 17 18 18 18 19 19 20 20 21 21 22 24 25 25 25 25 24 24 24 24 23 24 24 23 22 22 22 22 22 22 24 25 24 23 23 24 27 29 29 28 28 28 28 28 28 29 28 28 28 28 28 29 29 29 29 29 29 29 29 29 30 29 29 28 28 28 28 28
13 14 14 14 14 14 14 15 16 16 16 16 17 18 18 18 18 18 18 18 18 19 20 21 21 22 22 22 23 25 26 27 28 28 27 27 27 26 25 24 25 24 23 22 22 23 23 21 18 17 20 23 25 27 28 29 29 29 30 30 29 29 28 27 27 26 27 27 28 29 29 29 29 29 29 30 30 29 30 29 29 28 28 27 27 27
13 14 14 14 14 15 15 16 16 16 17 18 18 19 19 19 19 18 18 19 19 20 21 21 22 23 24 24 25 25 26 27 28 28 28 28 27 26 26 25 25 25 25 24 23 23 22 21 19 18 19 22 26 29 30 29 29 30 31 32 31 30 28 26 25 25 26 28 29 30 30 29 29 29 29 29 29 29 29 29 28 28 27 27 28 28
13 14 14 14 14 15 16 16 17 18 18 19 19 19 18 18 19 19 19 19 20 20 21 21 22 23 23 24 24 25 25 26 27 27 27 27 27 26 26 26 25 25 25 24 24 23 23 23 23 24 25 24 25 27 29 29 29 29 30 30 29 30 29 28 27 27 28 28 29 29 29 29 29 29 28 28 28 28 28 28 28 28 27 27 27 28
13 14 15 15 16 16 16 17 18 19 19 19 19 19 19 19 19 20 20 20 21 21 21 21 21 22 23 23 24 24 24 25 25 25 26 26 26 26 26 26 26 26 25 25 24 24 24 24 25 26 26 27 28 29 29 30 30 30 30 28 29 32 33 31 29 28 27 27 27 27 28 28 29 29 28 28 28 28 28 28 28 29 28 28 27 27
13 14 15 16 17 18 18 19 19 19 19 19 19 19 19 19 19 20 20 21 21 21 21 21 21 22 22 23 23 23 23 23 24 24 24 24 24 25 25 26 25 25 25 24 24 24 24 24 25 25 26 26 27 27 28 30 31 30 29 29 30 32 33 32 29 27 26 26 27 28 28 29 29 29 29 29 29 29 28 28 28 28 28 28 27 27
15 15 17 18 18 19 19 19 19 19 19 19 19 19 19 19 20 20 20 21 21 21 21 21 22 22 22 23 23 23 23 22 22 22 22 23 23 23 24 25 25 25 25 24 24 24 25 25 24 25 26 26 26 26 28 30 31 31 30 30 29 28 26 29 30 29 28 28 28 29 29 29 29 30 30 30 30 29 29 29 29 29 28 28 28 28
16 17 18 18 19 19 19 19 19 19 19 19 19 19 20 20 20 20 20 20 21 22 22 22 22 22 22 22 22 23 22 22 21 21 22 22 22 23 23 24 25 25 25 25 24 24 25 25 25 26 26 26 26 27 28 30 31 32 32 31 29 27 26 28 31 31 31 30 30 30 29 29 30 30 31 30 30 29 29 28 28 28 29 28 28 28
17 17 18 18 18 18 18 19 19 20 20 20 20 20 21 21 20 20 20 21 21 22 22 22 21 20 20 21 22 22 23 23 22 22 22 22 22 22 23 24 25 25 26 26 25 25 24 25 26 27 27 26 26 27 28 29 31 32 32 32 30 29 30 31 31 30 30 30 31 31 31 30 30 30 30 30 30 29 28 28 28 28 29 29 28 28
17 17 18 18 19 19 19 19 20 20 20 20 20 21 21 21 21 21 21 21 21 21 22 21 20 19 19 21 22 23 23 23 23 23 23 23 23 23 23 23 24 25 25 26 26 26 26 26 26 27 27 27 27 28 28 29 29 30 31 32 30 29 30 30 30 29 29 29 30 31 31 31 30 29 29 30 30 31 30 29 29 28 29 30 29 29
17 17 18 18 19 19 19 20 20 20 20 21 21 21 21 21 21 21 21 21 21 21 21 21 20 19 20 22 22 23 23 23 24 24 24 24 24 23 23 23 23 23 24 25 26 26 27 28 28 28 27 26 27 28 30 30 29 29 30 30 30 29 29 29 29 29 29 29 30 32 32 31 30 30 31 31 32 32 31 31 30 30 30 30 30 30
17 17 18 18 19 19 19 20 20 20 20 21 22 22 22 21 21 20 20 21 21 20 20 20 20 20 20 22 22 22 23 23 24 24 24 24 24 24 23 23 23 23 23 24 25 26 27 29 30 30 29 27 27 27 29 30 30 29 29 29 28 28 28 30 30 30 30 30 32 33 32 30 29 29 30 31 31 31 31 31 31 30 30 30 30 30
17 17 18 18 18 19 19 20 20 20 20 21 22 22 22 22 21 20 20 21 21 20 20 20 20 20 20 21 22 23 23 23 24 24 24 24 24 23 23 23 23 23 24 24 24 25 26 27 28 29 29 28 28 28 30 30 30 30 29 28 28 27 28 30 30 30 30 30 31 32 31 30 28 28 29 28 29 30 32 32 32 31 31 30 30 30
17 17 18 18 18 18 19 20 20 20 21 21 21 22 22 22 22 21 21 20 20 20 19 20 20 20 21 22 23 23 23 23 23 23 24 24 24 23 23 24 24 24 24 24 24 23 23 24 24 25 25 25 27 28 29 29 30 30 29 28 27 27 27 28 29 30 29 29 30 30 31 29 28 27 27 27 28 29 30 31 31 31 31 30 30 30
17 18 18 18 18 19 19 20 20 20 21 21 22 22 22 22 21 21 21 20 20 20 20 20 20 20 21 22 23 23 23 23 23 23 24 24 24 24 23 23 23 23 22 21 21 21 20 19 19 21 23 23 23 24 26 27 28 28 27 28 27 27 27 28 29 29 29 29 29 30 29 28 27 27 27 26 26 26 27 28 30 31 31 30 29 29
Wind_Direction
313 314 318 322 326 329 331 330 329 327 326 325 323 322 322 321 320 319 319 319 320 321 323 324 326 326 325 323 321 320 320 318 317 317 316 316 317 317 317 317 317 317 317 317 317 317 317 318 318 318 318 318 318 318 318 318 319 319 320 320 319 319 318 318 317 316 315 314 312 312 312 312 312 312 311 311 310 309 309 308 307 307 307 307 307 307
315 317 321 324 325 325 323 322 322 323 323 323 323 322 323 322 321 320 319 319 321 323 325 326 327 326 325 323 322 322 321 320 318 317 317 317 317 317 317 317 317 317 316 316 316 317 317 317 317 317 317 317 317 317 318 318 318 318 319 319 320 320 320 320 319 317 316 314 313 312 312 312 312 312 312 312 312 311 310 309 308 307 307 306 305 304
327 328 330 330 330 326 322 320 320 320 321 322 322 322 322 322 321 321 320 321 322 324 326 327 327 326 324 322 322 322 321 320 319 318 318 318 318 317 317 317 317 316 316 316 316 317 317 317 317 317 317 317 317 317 317 317 317 318 318 319 319 320 320 320 319 318 317 316 315 314 313 313 312 312 312 312 312 311 311 310 310 308 307 306 305 304
332 334 333 332 329 325 322 321 321 321 321 321 322 322 322 322 321 321 321 322 324 326 327 327 326 324 322 320 320 320 320 320 319 319 318 318 318 318 317 317 316 316 316 316 316 317 317 317 317 317 317 317 317 317 317 317 317 317 317 318 319 319 319 320 319 319 318 318 317 316 315 314 313 313 312 312 311 311 311 311 311 310 309 307 306 304
331 331 330 330 327 323 321 320 321 322 322 322 323 323 323 322 322 321 322 324 325 326 327 326 324 321 319 318 317 318 319 319 318 318 317 317 317 317 316 316 316 316 316 316 316 317 317 317 317 317 317 317 317 317 317 317 316 317 317 317 317 318 318 318 319 319 319 318 317 316 316 315 314 313 312 312 311 311 311 311 310 310 309 308 307 305
326 326 326 326 323 320 320 321 323 324 325 325 325 324 324 323 322 322 323 325 326 325 325 323 321 319 317 316 315 315 316 316 316 316 316 316 316 316 316 316 316 316 316 316 316 316 316 316 317 317 317 317 317 317 316 316 316 316 316 316 316 316 316 317 317 317 317 317 317 316 315 314 314 313 312 311 310 310 309 309 308 308 308 307 307 305
322 322 325 325 322 319 319 321 323 325 326 326 325 325 323 323 322 322 323 324 324 323 322 321 319 317 316 315 314 314 314 314 314 315 316 316 315 315 315 315 315 315 315 315 315 315 315 316 316 316 316 316 316 316 316 316 315 315 315 314 314 314 315 315 315 314 315 315 315 315 314 314 313 312 311 310 309 308 307 307 306 305 305 305 305 304
325 324 327 327 324 321 319 319 322 325 326 326 325 324 323 322 322 322 322 323 323 323 322 321 320 318 316 315 315 315 315 315 315 316 316 316 316 315 315 315 314 314 314 314 314 314 314 314 315 315 315 315 315 315 315 315 315 314 314 313 313 313 313 313 313 313 313 313 313 313 313 312 312 311 310 309 308 306 306 305 304 303 303 302 302 302
330 329 328 327 324 321 319 319 321 324 326 325 324 323 322 323 324 324 324 324 324 324 324 324 322 320 317 317 317 317 317 317 316 316 315 314 314 314 314 314 314 314 314 313 313 313 313 313 314 314 314 314 314 314 314 313 313 313 313 312 312 312 312 312 312 312 311 311 311 311 311 310 310 309 309 308 307 305 305 303 303 302 301 301 300 300
330 328 326 323 321 321 320 320 322 324 326 325 324 323 324 326 328 329 328 326 325 325 325 324 323 321 319 318 318 319 319 318 317 315 314 312 312 312 312 313 313 312 312 312 312 312 312 312 312 312 312 312 312 312 312 312 312 312 311 311 311 311 312 312 311 311 311 310 310 309 309 308 308 308 307 306 306 305 304 303 302 301 300 299 299 298
329 325 323 321 322 323 323 323 324 325 325 325 325 325 327 331 333 332 330 326 324 324 324 323 322 321 319 318 318 319 319 318 317 317 316 315 313 312 312 311 311 310 310 310 310 309 310 310 311 311 311 311 311 311 311 311 311 311 311 311 311 311 311 311 311 310 310 309 309 308 307 307 307 306 305 305 304 303 303 302 301 300 299 298 298 297
329 326 324 324 326 328 327 326 325 325 327 328 329 330 331 333 333 332 330 326 324 324 324 322 320 319 317 316 316 317 317 316 316 316 317 317 316 314 313 312 310 310 309 308 308 308 309 310 310 310 310 309 309 310 310 310 310 310 310 310 310 310 310 310 310 310 309 309 308 307 307 306 306 305 304 303 303 302 301 300 299 298 297 297 296 295
331 330 329 330 330 331 330 328 327 327 328 330 333 334 333 332 331 329 327 324 323 323 323 322 319 317 316 316 316 316 316 315 315 316 317 317 316 315 314 313 312 311 310 309 309 309 310 311 311 310 310 310 311 311 311 311 310 310 310 310 310 310 310 309 309 309 308 308 308 307 307 306 305 304 303 303 301 301 300 299 298 297 296 296 295 294
335 334 334 333 331 330 327 325 324 324 326 330 332 332 331 328 327 327 327 323 321 321 321 320 317 315 315 316 316 317 317 317 317 318 317 316 315 315 314 313 311 311 310 309 309 310 311 312 311 311 312 312 312 312 312 312 311 310 310 309 309 309 309 309 308 308 308 307 307 306 306 305 304 303 303 302 301 300 299 298 297 296 295 295 294 293
336 336 335 332 328 324 322 320 320 321 324 327 328 327 325 325 326 328 328 324 322 321 322 319 316 314 313 313 316 319 319 319 320 320 318 315 314 313 313 312 311 310 310 309 308 309 312 312 311 311 312 312 312 312 311 310 310 309 309 308 308 308 308 308 307 307 307 306 306 305 305 304 304 303 302 301 300 299 298 298 297 296 295 294 294 293
333 332 330 325 320 317 316 317 318 320 323 324 325 325 327 328 328 327 326 323 321 321 322 320 318 316 313 314 317 320 320 321 322 320 317 314 312 312 313 312 310 309 309 308 307 309 311 312 311 311 311 310 310 310 309 309 308 308 308 307 307 307 307 307 307 306 306 305 305 304 304 303 303 302 302 301 300 299 298 298 297 296 295 294 293 293
327 326 323 319 315 313 314 315 317 319 321 322 323 324 325 326 325 324 323 321 320 319 318 318 317 316 314 315 316 318 321 322 321 318 314 311 310 311 313 312 308 306 306 306 306 308 310 311 311 310 310 309 309 309 308 308 307 307 307 306 306 306 306 306 306 306 305 304 304 303 303 302 302 302 301 300 300 299 298 297 297 296 295 294 293 292
319 318 316 314 311 312 314 315 316 318 319 322 323 322 321 320 320 319 318 317 315 314 313 312 310 309 309 310 311 313 318 320 319 316 313 309 309 311 313 311 307 304 304 305 306 308 310 310 309 309 308 308 308 308 308 307 306 306 306 305 305 305 305 305 305 305 304 304 303 302 302 301 301 300 300 299 299 298 298 297 296 295 295 294 293 292
309 309 309 308 309 309 310 311 314 317 320 322 323 322 320 318 316 315 313 312 310 308 307 306 304 302 302 301 304 308 314 317 317 314 310 307 307 310 312 311 308 305 304 305 307 308 309 308 307 307 306 306 307 307 307 306 305 305 305 305 305 305 304 304 304 303 303 303 302 302 301 300 300 300 299 299 298 298 297 296 296 295 294 293 293 292
301 300 301 303 306 307 307 306 308 312 316 318 319 318 317 315 313 312 310 308 307 304 303 301 299 299 299 299 302 306 310 314 314 310 307 305 305 307 311 311 309 307 305 305 307 308 308 308 307 306 306 306 306 306 306 305 304 304 304 304 304 304 303 303 303 302 302 302 301 301 301 300 300 300 299 299 298 298 297 296 295 295 294 293 292 291
298 297 296 298 302 304 303 302 302 305 308 312 314 314 313 311 311 309 308 307 306 304 302 299 297 297 298 299 300 303 307 310 309 306 305 304 304 306 309 311 310 308 307 306 307 308 308 307 306 306 306 306 305 305 304 304 303 303 303 303 302 302 302 302 301 301 301 301 301 301 301 301 301 300 300 299 299 298 297 296 295 295 294 293 292 291
294 292 291 291 292 294 295 294 296 298 302 306 308 308 306 306 306 305 305 305 304 302 299 296 295 295 296 295 296 299 304 306 304 302 304 303 303 305 309 312 311 309 307 306 307 308 308 307 306 305 305 304 304 303 303 302 302 302 302 301 301 301 301 300 301 301 301 301 302 302 302 301 301 301 300 299 299 298 297 296 295 295 294 293 292 291
290 289 288 288 287 287 288 289 293 297 300 301 299 298 297 297 296 296 298 298 297 296 295 294 294 294 294 293 295 299 304 306 306 305 304 302 301 304 309 312 312 308 305 305 307 308 308 306 305 304 304 303 302 302 302 301 301 300 300 300 300 299 300 300 301 301 302 302 302 302 302 301 301 301 300 299 299 298 297 296 296 295 294 293 292 291
299 298 297 297 295 294 294 296 298 300 301 299 297 295 296 295 294 293 293 294 294 295 295 297 296 295 296 297 298 301 304 307 308 308 305 300 300 303 307 310 310 307 304 305 307 308 308 306 304 303 302 302 301 301 301 300 300 299 299 299 299 299 300 300 301 302 302 302 302 302 302 302 301 301 300 300 299 298 298 297 296 295 294 294 293 292
306 305 305 304 303 301 299 299 299 298 298 298 298 298 298 297 296 294 294 295 296 297 298 298 297 296 299 302 302 303 304 307 309 308 305 301 299 301 304 308 308 306 305 305 307 308 307 305 303 302 301 300 301 301 301 300 299 298 298 299 299 300 300 301 302 302 302 302 302 302 302 302 301 301 300 300 299 299 298 297 297 296 295 294 294 292
303 301 301 300 300 298 297 297 296 296 296 297 297 298 297 297 296 295 295 296 298 299 300 298 297 298 302 304 304 304 306 309 309 307 304 301 299 300 303 308 309 308 306 306 307 308 306 304 302 301 300 300 301 303 302 300 299 298 299 299 300 300 301 301 302 302 302 302 302 302 302 301 301 301 300 300 299 299 298 298 297 296 296 295 294 293
302 301 300 300 300 299 299 299 298 298 298 298 297 297 296 296 296 296 296 297 299 299 298 298 299 302 304 305 305 305 308 309 309 307 304 301 299 300 303 308 311 310 308 307 307 306 305 302 300 299 299 301 303 304 304 301 300 299 299 300 300 301 301 302 302 303 302 302 302 302 301 301 301 300 300 300 300 299 299 298 298 297 297 296 295 294
307 306 306 305 305 305 304 303 303 302 301 300 299 298 296 295 293 292 291 294 296 296 294 296 299 302 305 305 305 306 308 307 307 307 307 306 302 300 304 309 312 311 310 308 307 306 303 300 299 299 300 303 305 306 305 302 301 300 300 300 301 301 302 303 303 303 302 302 301 301 301 301 301 300 300 300 300 299 299 299 299 299 298 297 296 294
311 311 311 310 310 309 308 307 306 305 303 301 301 300 297 292 288 285 286 291 293 293 292 294 297 300 302 304 305 306 306 306 307 311 314 315 308 302 305 309 311 312 313 312 311 310 306 303 301 303 304 306 307 306 304 303 302 302 302 302 303 303 303 303 304 303 302 301 301 301 301 301 301 300 300 300 300 300 299 300 300 300 299 297 295 293
317 317 316 316 316 315 314 312 312 311 307 304 303 301 298 293 288 286 287 290 289 287 288 292 295 298 301 305 307 307 306 307 310 316 319 318 310 305 308 310 311 313 316 317 317 314 310 308 308 308 309 310 308 307 306 305 305 304 304 304 304 304 303 303 303 302 301 301 301 300 300 300 300 300 300 300 300 300 300 300 300 300 299 297 295 293
320 320 320 320 321 321 320 319 318 317 313 309 306 305 302 298 294 292 290 289 287 284 285 288 292 296 300 303 306 306 303 305 309 315 318 314 307 304 308 309 309 311 315 317 318 315 312 311 311 311 312 311 309 308 307 307 306 305 305 304 303 303 303 303 302 301 301 301 300 300 300 300 300 300 300 300 299 299 299 299 299 299 298 296 295 293
320 320 321 323 325 325 325 323 321 318 315 312 310 308 306 303 301 299 296 294 291 289 288 289 291 294 295 295 292 289 293 298 304 310 314 309 304 302 305 306 306 307 310 309 305 301 303 306 308 310 310 310 309 308 307 307 306 305 305 304 303 303 303 304 303 302 301 301 301 300 300 299 299 299 299 299 298 298 298 298 298 298 296 295 293 292
320 321 323 326 328 328 327 325 322 319 317 315 313 311 308 306 304 302 301 299 298 297 296 296 296 296 295 292 288 287 289 293 299 305 308 305 302 301 303 304 304 305 306 305 300 295 291 294 301 306 308 308 308 307 307 307 306 306 306 305 304 303 304 305 304 302 302 301 301 300 300 299 298 298 298 298 297 297 297 297 296 296 294 293 292 291
323 325 328 330 330 330 328 326 325 323 322 319 317 314 311 307 304 302 299 298 297 296 296 296 296 295 294 293 290 288 288 291 296 301 304 302 300 299 301 301 302 303 305 304 302 298 294 293 298 303 306 307 307 306 306 306 306 306 306 305 304 304 304 304 304 303 302 301 300 299 299 299 299 298 298 298 297 297 296 296 296 295 293 291 291 291
328 331 333 333 332 331 330 329 329 328 326 323 319 315 312 308 305 301 298 296 294 292 291 290 289 288 288 288 289 289 290 291 295 300 300 298 296 297 298 298 299 301 302 302 302 301 299 297 298 301 303 305 306 306 306 306 307 307 306 305 304 303 303 303 302 301 301 300 299 298 298 298 298 298 298 297 297 297 296 296 295 294 292 290 289 289
331 334 336 335 334 332 331 331 330 329 327 323 319 316 312 309 306 303 301 298 296 293 291 288 286 283 282 281 281 283 286 289 294 297 297 294 293 293 294 294 296 298 298 298 299 300 299 299 300 301 301 303 304 306 307 308 308 307 306 305 304 303 301 301 301 300 299 297 297 297 297 297 297 297 296 296 296 296 295 294 293 292 291 289 287 286
334 335 336 336 334 333 330 330 329 328 325 322 318 316 313 311 308 305 303 301 298 296 293 291 289 286 283 281 279 280 283 287 291 293 293 291 290 289 288 289 292 293 293 293 295 296 298 298 299 300 300 299 300 303 306 309 309 308 306 305 304 303 301 301 300 299 297 295 295 295 296 296 295 295 295 295 295 295 294 293 292 291 290 289 287 285
335 335 335 335 333 331 329 328 326 324 322 319 317 315 313 310 308 306 304 301 299 297 295 294 292 289 287 286 284 284 286 287 289 290 291 290 289 286 284 285 287 288 288 287 288 291 293 294 297 299 299 298 298 299 302 306 307 307 305 305 304 302 300 300 299 298 297 295 295 295 295 294 293 293 293 293 294 294 293 293 292 292 292 291 289 287
335 334 333 332 331 329 327 324 322 320 318 315 314 312 311 310 308 306 304 302 300 298 297 295 293 291 291 292 291 290 289 290 291 292 292 292 290 287 283 282 283 285 286 284 283 284 285 287 288 291 295 297 298 299 301 302 303 304 305 305 304 302 300 300 299 297 296 295 294 294 294 293 292 292 292 292 293 292 292 292 292 292 292 292 291 290
332 330 329 328 326 324 322 319 317 316 315 313 313 312 311 310 309 308 306 305 303 301 300 298 295 292 292 291 290 290 290 291 292 293 294 294 292 289 285 282 281 283 284 284 283 281 280 281 283 285 288 290 294 296 298 299 299 301 303 304 303 302 301 301 299 297 295 293 292 291 292 293 293 292 292 291 291 290 290 290 290 290 290 290 289 289
327 326 324 323 322 321 318 316 315 315 314 313 312 312 312 311 310 310 309 308 306 305 302 300 298 296 294 293 292 291 291 292 293 294 294 295 294 292 288 283 281 282 283 283 282 280 279 279 281 283 285 287 290 292 293 294 296 298 299 298 298 298 299 299 297 296 295 293 292 291 292 293 293 292 291 290 289 288 288 287 287 287 288 286 285 284
323 321 320 319 319 318 317 316 316 315 314 313 313 312 311 311 309 308 308 307 306 306 306 305 302 300 298 297 296 295 295 295 295 296 296 296 294 293 291 287 284 282 281 281 280 279 277 278 279 280 283 285 288 290 291 292 293 294 294 293 294 296 298 297 296 296 295 294 293 293 293 292 292 291 291 290 289 288 287 286 285 285 284 283 281 280
318 317 316 316 316 317 317 317 317 317 316 314 313 311 311 310 309 307 305 304 304 305 305 305 303 301 299 298 298 299 299 299 298 298 297 296 295 294 293 291 288 285 283 281 280 281 282 280 278 279 281 283 284 286 288 290 292 292 292 291 292 294 296 296 297 297 296 294 293 293 292 292 291 291 291 290 290 289 288 286 285 283 282 280 279 278
315 315 316 316 316 317 317 317 317 317 316 314 311 311 311 310 308 305 302 302 302 302 302 303 303 302 300 299 300 301 303 303 302 300 299 298 297 295 294 292 290 288 284 280 279 281 284 283 281 281 281 281 281 282 285 287 289 290 290 290 289 287 286 289 293 296 297 295 294 293 292 291 291 292 291 291 289 288 287 286 284 282 281 279 277 275
315 315 315 316 316 317 317 316 316 316 315 313 311 310 311 310 308 304 301 301 301 301 302 302 302 302 301 301 302 304 306 305 304 303 302 301 300 298 296 293 291 288 285 281 278 277 279 281 282 283 283 281 279 278 280 282 285 286 287 287 287 285 283 285 288 291 293 293 292 292 292 292 291 291 291 290 289 288 287 286 284 282 281 280 277 275
314 314 315 316 317 317 316 316 315 315 314 312 311 311 310 309 307 304 302 300 299 300 301 302 301 300 300 302 304 306 307 307 307 306 306 304 303 301 299 296 293 289 286 282 278 275 274 274 277 280 282 282 279 277 276 278 280 282 284 286 287 287 287 287 287 288 288 290 291 291 292 292 292 291 290 290 290 289 288 287 284 282 282 281 279 276
316 316 316 316 316 316 316 315 314 313 312 311 310 310 310 309 307 304 303 302 301 300 301 302 300 298 298 300 303 305 306 306 306 307 307 306 305 304 302 299 296 292 287 284 280 277 273 272 273 274 275 277 278 279 278 278 278 278 281 284 286 287 287 287 287 288 288 289 289 290 291 292 292 290 289 289 290 289 288 287 284 282 281 280 279 277
317 316 315 315 315 315 314 314 314 312 311 309 309 310 310 309 308 306 304 303 302 302 302 301 300 298 297 299 302 303 303 303 304 304 305 306 306 305 304 302 299 296 291 287 283 280 277 275 273 270 268 269 272 276 278 279 278 278 279 282 285 285 286 286 287 288 288 288 288 289 289 288 287 287 288 288 288 287 286 285 284 282 281 280 277 275
315 315 314 314 314 313 312 313 312 311 309 308 308 309 309 309 309 308 305 304 303 302 301 300 300 299 298 299 301 302 303 302 302 302 304 304 305 305 304 303 302 299 297 293 289 286 283 280 276 272 267 264 265 269 274 277 278 279 279 281 282 283 284 285 287 288 288 288 288 288 287 285 282 282 284 284 284 285 285 284 283 282 281 279 277 275
315 314 313 313 312 311 311 311 310 310 309 308 307 308 309 310 310 308 306 305 304 302 300 299 299 298 298 298 300 302 302 302 301 301 302 303 304 304 303 304 303 302 301 298 297 296 293 290 285 280 275 268 264 265 268 273 277 279 280 280 281 282 283 284 287 288 289 289 290 290 289 287 284 282 283 282 282 283 284 284 283 282 282 280 278 276
314 314 313 312 311 311 310 310 308 307 307 306 306 307 308 309 309 309 309 306 305 304 302 300 298 296 296 297 298 299 300 300 300 299 301 302 304 304 302 303 303 302 301 300 300 301 300 298 296 293 291 284 276 270 268 271 276 281 282 282 283 283 284 286 288 289 290 291 291 292 291 290 288 286 285 283 284 284 285 285 285 284 284 283 281 279
Height
807 807 807 807 807 807 807 807 807 807 806 806 806 806 805 805 804 804 803 803 802 801 800 800 799 798 798 797 797 796 796 795 794 793 793 792 791 790 789 788 787 786 785 784 783 782 781 780 779 778 777 777 776 775 774 773 772 771 770 769 768 767 766 764 763 762 762 761 760 759 758 757 756 755 753 753 752 751 750 750 749 748 748 747 746 746
807 807 807 807 807 807 806 806 806 806 806 805 805 805 804 804 803 803 802 802 801 801 800 799 798 797 797 796 796 795 795 794 793 792 792 791 790 789 788 787 786 785 784 783 782 781 780 779 778 777 776 775 774 773 772 772 771 770 768 767 767 765 764 763 762 761 760 759 758 757 757 755 754 753 753 752 751 750 749 749 748 747 747 746 745 745
807 807 806 806 806 806 806 806 806 806 805 805 804 804 803 803 802 802 802 801 800 800 799 798 797 797 796 795 795 794 793 792 792 791 790 789 788 787 786 785 784 783 782 782 781 780 779 778 777 776 775 774 773 772 771 770 769 768 767 766 765 764 763 762 761 760 759 758 757 756 755 754 753 752 752 751 750 749 748 748 747 746 745 745 744 743
807 806 806 806 806 806 806 805 805 805 805 804 804 803 803 802 802 801 801 800 799 799 798 798 797 796 795 794 793 793 792 791 790 790 788 787 787 786 785 784 783 782 781 780 779 778 777 776 775 774 773 772 772 771 770 769 768 767 766 765 764 763 762 761 760 759 758 757 756 755 754 753 752 752 751 750 749 748 747 747 746 745 744 744 743 742
807 807 806 806 805 805 805 805 805 804 804 804 803 802 802 802 801 801 800 799 799 798 797 797 796 796 795 793 792 792 791 790 789 788 787 786 785 784 783 782 782 781 780 779 778 777 776 775 774 773 772 771 770 769 768 768 767 766 765 764 763 762 761 760 759 758 757 756 755 754 753 752 752 751 750 749 748 747 747 746 745 744 744 743 742 742
807 807 806 806 805 805 805 804 804 804 803 803 802 802 802 801 801 800 799 799 798 797 797 796 796 795 794 793 792 791 790 789 788 787 786 785 784 783 782 781 781 780 779 778 777 776 775 774 773 772 771 770 769 768 767 767 766 765 764 763 762 761 760 759 758 757 756 755 754 753 752 752 751 750 749 748 747 747 746 745 744 743 743 742 741 740
807 807 806 806 805 805 805 804 804 804 803 802 802 801 801 800 800 799 799 798 797 797 796 796 795 794 793 792 791 790 789 788 787 786 785 784 783 782 781 781 780 779 778 777 776 775 774 773 772 771 770 769 768 767 767 766 765 764 763 762 761 760 759 758 757 756 755 754 753 752 752 751 750 749 748 747 747 746 745 744 743 742 742 741 740 739
806 806 806 806 805 805 805 804 804 803 803 802 801 800 800 799 799 799 798 798 797 796 795 794 794 793 792 791 790 789 788 787 785 784 784 783 782 781 781 780 779 778 777 776 775 774 773 772 771 770 769 768 767 766 765 764 763 763 762 761 760 759 758 757 756 755 754 753 752 752 751 750 749 748 747 746 745 745 744 743 742 741 741 740 739 738
806 806 806 806 805 805 804 804 803 803 803 802 801 800 799 798 798 798 797 797 796 796 795 794 792 792 791 790 789 787 787 786 785 783 783 782 781 780 780 779 778 777 776 775 774 773 772 771 770 769 768 767 766 765 764 763 762 762 761 760 759 758 757 756 755 754 753 752 751 750 749 748 747 747 746 745 744 743 742 742 741 740 739 738 738 737
806 806 806 806 805 805 804 803 803 803 802 802 801 801 800 798 797 797 796 796 795 795 794 793 792 790 789 788 787 786 785 784 784 783 782 781 781 780 779 778 777 776 775 774 773 772 771 770 769 767 767 766 765 764 763 762 761 760 760 759 758 757 756 755 754 753 752 751 750 749 748 747 747 746 745 744 743 742 741 740 739 739 738 737 736 735
806 806 806 805 805 805 804 803 803 802 802 801 801 800 800 799 798 796 795 794 793 793 793 792 791 790 788 786 785 784 784 783 782 782 781 781 780 779 778 777 776 775 774 772 772 770 769 768 767 767 766 765 764 763 762 761 760 759 758 757 757 756 755 754 753 752 751 750 749 748 747 746 745 744 743 742 742 741 740 739 738 737 736 735 735 734
806 806 805 805 805 804 804 803 802 802 801 801 800 799 799 798 798 797 796 794 793 792 791 791 790 789 788 786 785 783 782 782 781 780 780 779 778 777 776 775 774 773 772 771 770 769 768 767 767 766 765 764 763 762 761 760 759 758 757 757 756 755 754 753 752 751 750 749 748 747 746 745 744 743 742 741 740 739 738 737 737 736 735 734 733 732
806 805 805 805 804 804 803 803 802 802 801 800 800 799 798 798 797 797 796 794 793 792 791 790 789 788 787 786 785 783 782 781 780 780 779 778 777 776 775 774 773 772 771 770 768 768 767 766 765 765 764 762 762 761 760 759 758 757 756 755 754 753 752 752 750 749 748 747 747 745 745 744 743 742 741 740 739 738 737 736 735 734 733 732 732 731
805 805 805 804 804 803 803 803 802 802 801 801 800 799 798 797 797 796 795 794 793 792 791 790 788 787 786 785 785 784 782 781 780 779 778 777 776 775 774 773 772 770 769 768 767 767 766 765 764 763 762 762 761 760 759 758 757 756 755 754 753 752 751 750 749 748 747 746 745 744 743 742 741 740 739 738 737 736 735 734 733 732 732 731 730 729
805 805 804 804 804 803 803 803 802 802 801 801 800 799 798 797 797 796 795 794 792 792 791 789 788 787 786 785 784 783 782 781 779 778 777 776 775 775 773 772 770 769 768 767 766 765 765 764 763 762 761 761 760 759 758 757 756 755 754 753 752 751 750 749 747 747 746 744 743 742 742 740 739 738 737 737 736 735 734 733 732 731 730 729 728 727
805 805 805 804 804 803 803 803 802 802 801 800 800 799 798 797 796 796 795 794 793 792 791 789 787 786 785 784 784 783 782 781 779 778 776 775 774 773 773 771 769 768 767 766 765 764 764 763 762 762 761 760 759 758 757 756 755 754 752 752 750 749 748 747 746 745 744 743 742 741 740 739 738 737 736 735 734 733 732 731 730 729 728 727 726 725
805 805 805 804 804 803 803 803 802 802 801 800 799 799 798 797 797 796 795 794 793 792 792 791 789 787 784 782 782 783 782 781 779 777 776 774 772 772 772 771 769 767 766 765 764 763 763 762 761 761 760 759 758 757 756 755 753 752 751 750 749 748 747 746 744 743 742 741 740 739 738 737 736 735 734 733 732 731 730 729 728 727 726 725 724 723
805 805 805 805 804 803 803 802 802 801 801 800 799 799 798 798 797 796 796 795 794 793 792 792 791 789 786 783 782 782 782 781 779 777 775 773 771 770 770 769 768 766 765 764 763 763 762 761 761 759 758 757 757 756 755 753 752 751 750 748 747 746 745 744 742 742 740 739 738 737 736 735 734 733 732 731 730 729 728 727 726 725 724 723 722 722
805 805 805 805 804 803 803 802 802 801 801 800 799 798 798 797 797 796 796 795 795 794 793 792 791 789 787 785 782 782 782 781 779 777 774 772 770 769 769 768 767 765 764 763 762 762 761 760 759 758 757 757 756 754 753 752 751 750 748 747 746 744 743 742 741 740 739 737 737 736 734 733 732 731 730 729 728 727 726 725 724 723 722 721 720 719
805 805 805 804 804 803 802 802 802 801 801 800 799 799 798 797 797 796 796 795 794 794 793 792 790 789 787 785 783 781 781 780 779 777 774 772 769 768 768 767 766 764 763 762 761 761 760 759 758 757 756 755 754 753 752 751 749 748 747 745 744 743 742 740 739 738 737 736 735 734 733 732 731 729 728 727 726 725 724 723 722 721 720 719 718 717
805 804 804 804 804 803 802 802 801 801 801 800 799 799 798 797 797 796 795 795 794 793 792 792 790 788 787 785 783 781 780 780 778 776 773 771 768 767 767 766 765 763 762 760 760 759 758 757 756 755 754 753 752 752 750 749 748 746 745 744 742 741 740 738 737 736 735 734 733 732 731 730 729 727 727 725 724 723 722 721 720 719 718 717 716 715
805 804 804 804 803 803 802 801 801 801 800 800 799 799 798 797 796 795 795 794 793 792 792 791 789 788 787 785 782 781 780 780 778 777 773 770 767 766 766 765 764 762 760 759 758 757 757 756 755 754 753 752 751 750 749 747 746 745 743 742 741 739 738 737 736 735 733 732 731 730 729 728 727 726 724 723 722 721 720 719 718 717 716 715 714 713
804 804 803 803 803 802 802 801 800 800 800 800 799 798 798 797 796 795 794 793 793 792 791 790 788 787 786 784 782 781 780 779 778 777 774 770 766 764 764 764 763 761 759 758 757 756 755 754 753 752 751 750 749 748 747 745 744 743 741 740 739 737 736 735 734 733 732 731 730 728 727 726 725 724 722 721 720 719 718 717 716 715 714 713 712 711
804 803 803 802 802 801 801 800 800 799 799 798 798 797 797 796 795 794 793 793 792 791 790 788 787 785 784 783 781 780 779 779 778 777 774 771 767 764 764 763 762 760 758 757 756 755 753 752 751 750 749 748 747 746 745 743 742 741 740 738 737 736 735 734 732 732 730 729 728 727 725 724 723 722 720 719 718 717 716 715 714 712 712 711 709 708
803 802 802 802 801 801 800 799 799 799 798 798 797 796 795 795 794 793 793 792 791 790 789 788 786 784 783 782 780 779 778 778 777 776 774 771 767 764 763 763 762 759 757 755 754 753 752 750 749 748 747 746 745 744 743 742 740 739 738 737 736 735 733 732 731 730 728 727 726 724 723 722 721 720 718 717 716 715 714 713 712 711 709 708 707 706
803 802 802 801 801 800 800 800 799 799 798 797 797 796 795 794 793 792 792 791 791 790 789 787 785 783 782 781 779 778 777 777 776 776 774 771 767 764 763 762 762 759 756 754 752 752 750 748 747 745 745 744 743 742 741 740 739 738 737 736 734 733 732 731 729 728 727 725 724 722 721 720 719 718 717 716 714 713 712 711 710 708 707 706 705 703
803 802 802 801 800 800 799 798 798 797 797 796 796 795 794 793 792 792 791 791 790 790 788 787 785 782 781 780 779 777 776 776 775 774 773 771 768 765 762 762 761 759 756 753 751 750 749 747 745 743 742 742 741 740 739 738 737 737 735 734 733 732 730 729 727 726 725 723 722 721 719 718 717 716 715 714 712 711 710 709 708 707 705 704 702 701
802 801 800 800 799 798 798 797 797 796 796 795 795 794 793 793 792 791 790 790 790 789 788 787 785 783 781 779 778 777 776 775 774 773 772 771 768 765 763 762 761 759 756 752 749 748 747 745 743 742 741 740 739 738 738 737 736 735 734 732 731 730 728 727 726 724 723 722 720 719 718 717 715 714 713 712 711 709 708 707 706 705 703 702 700 699
800 800 799 798 798 797 797 796 796 795 795 794 794 793 793 792 791 791 790 789 789 788 787 786 785 783 781 779 777 776 775 774 773 773 772 771 768 766 763 762 761 759 757 752 748 745 744 743 742 741 740 739 738 737 737 736 734 733 732 730 729 728 727 725 724 722 721 720 718 717 716 715 713 712 711 710 709 707 706 705 704 703 701 700 698 697
799 799 798 797 797 797 796 795 795 794 794 793 793 792 792 791 791 790 789 789 788 788 787 785 784 783 781 779 777 775 773 773 773 773 772 771 768 765 764 762 761 760 758 755 749 743 740 739 740 740 739 738 737 736 735 734 732 731 730 728 727 726 725 724 722 721 719 718 717 715 714 713 712 710 709 708 707 706 705 704 703 701 700 698 696 694
798 798 797 797 796 796 795 795 794 793 793 792 792 792 791 790 790 789 789 788 788 787 786 785 784 782 782 780 778 775 772 772 772 772 772 771 768 765 764 762 761 760 760 758 755 748 741 736 735 737 738 737 736 735 734 732 731 730 728 727 725 724 723 722 721 719 718 716 715 714 712 711 710 708 707 706 705 704 703 702 701 700 698 696 694 692
798 798 797 797 796 795 795 794 793 793 792 792 791 791 790 790 789 789 788 787 787 786 785 784 783 782 781 781 779 777 773 772 771 772 772 771 768 765 764 763 761 759 759 759 758 755 748 739 734 734 736 736 735 733 732 731 730 729 727 726 724 722 722 721 719 718 716 714 713 712 710 709 707 706 705 704 703 702 701 700 699 698 697 695 693 691
798 797 797 796 795 795 794 793 792 792 791 790 790 790 789 789 788 788 787 787 787 786 785 784 782 782 780 779 778 776 774 772 772 772 772 770 768 765 764 762 761 759 758 757 757 755 752 745 739 735 733 733 733 732 731 730 729 727 726 725 723 721 720 719 718 716 714 713 711 709 708 707 705 704 703 702 701 699 698 698 697 697 696 694 692 689
797 797 796 795 794 794 793 792 792 791 790 790 789 789 788 788 787 787 787 786 786 785 784 783 782 781 780 778 776 774 772 772 771 771 771 770 768 765 763 762 761 759 757 756 754 753 750 747 743 738 734 731 730 730 730 728 727 726 725 724 722 720 718 717 716 714 712 711 709 707 706 704 703 702 700 699 698 697 696 695 695 694 694 692 691 688
797 796 795 794 793 792 792 791 791 790 789 789 788 788 787 787 787 786 786 785 784 784 783 783 782 781 779 778 776 773 771 770 770 770 770 769 767 765 763 761 760 759 757 755 753 751 748 745 743 740 736 731 727 727 728 727 726 725 723 722 721 719 717 716 714 713 711 709 707 705 703 702 701 699 698 697 696 695 694 693 692 692 691 691 689 688
796 795 794 793 792 792 791 790 790 789 789 788 787 787 787 786 785 785 784 783 783 782 782 781 780 779 778 777 775 773 770 769 768 769 769 768 767 765 762 760 759 758 757 755 752 751 748 744 742 740 737 733 728 725 724 725 725 723 722 721 719 718 716 715 713 711 709 707 705 703 702 700 699 697 696 695 694 693 692 691 690 689 688 687 687 686
795 794 793 792 792 791 790 789 789 788 788 787 787 786 786 785 784 783 782 782 781 781 780 779 778 777 776 775 774 772 770 768 767 767 767 767 766 764 762 760 758 758 757 755 752 750 748 744 741 738 736 734 730 726 723 722 722 721 720 719 717 716 714 712 711 710 708 706 703 702 700 699 697 696 694 693 692 691 689 688 687 686 685 684 683 682
794 793 793 792 792 791 790 789 788 788 787 787 786 785 784 784 783 782 781 781 780 779 778 777 776 775 774 773 772 771 769 767 767 766 765 765 764 763 761 758 757 756 756 754 752 750 748 745 741 737 734 732 729 727 725 723 721 719 717 716 715 714 712 711 709 708 706 704 702 700 698 697 695 694 692 691 689 688 687 685 684 683 682 681 680 679
794 793 792 792 791 791 790 789 788 788 787 786 785 784 783 783 782 781 780 779 778 777 776 775 774 773 772 771 770 769 767 766 765 764 763 763 762 761 760 757 755 754 753 752 751 749 747 745 742 739 735 731 727 725 724 723 721 718 716 713 711 710 710 709 708 706 704 702 700 698 696 694 693 692 690 688 687 686 684 683 682 681 680 679 677 676
794 793 792 792 791 791 790 789 788 787 786 785 784 784 783 782 781 780 779 778 777 776 775 773 772 771 770 768 767 767 765 764 763 762 761 760 760 759 758 756 754 752 751 750 749 748 746 744 741 738 736 732 728 725 722 721 720 718 716 712 709 706 705 706 705 704 702 700 698 696 694 692 691 690 688 687 686 684 683 681 680 679 678 677 676 674
793 793 792 792 791 790 790 789 788 787 786 785 784 783 782 781 780 778 777 776 775 774 773 772 770 769 767 767 766 765 764 762 762 760 759 758 758 757 756 754 753 751 750 748 747 746 744 742 740 737 734 732 729 725 722 720 718 717 716 713 709 705 703 702 702 701 699 697 696 694 692 691 689 687 686 685 683 682 681 680 678 677 676 675 674 672
794 793 792 791 790 790 789 788 787 786 785 784 783 782 781 780 779 777 776 775 773 772 771 770 769 767 765 764 763 762 762 761 760 759 758 757 756 755 754 752 751 750 748 747 745 743 742 740 738 736 733 731 728 725 721 717 716 716 715 712 708 704 701 698 698 699 698 696 694 692 691 689 687 685 683 682 681 679 678 677 676 675 674 672 671 670
793 792 792 791 790 789 788 787 786 785 784 783 782 781 780 779 778 777 776 774 772 771 770 769 767 766 764 762 761 760 759 759 758 757 756 755 754 753 752 751 750 748 747 745 743 741 739 738 737 734 732 730 728 725 721 717 714 712 711 710 708 705 701 696 694 695 695 693 692 690 689 687 685 683 681 680 678 677 676 675 673 672 671 670 668 667
793 792 791 790 789 788 787 786 785 784 783 782 781 780 779 778 777 776 775 773 772 770 769 767 766 764 762 761 759 758 757 757 756 755 754 753 752 751 750 749 748 747 746 744 742 739 737 736 734 732 731 729 727 723 720 716 712 710 707 707 706 705 701 696 693 692 692 690 689 688 686 685 683 681 678 677 675 674 673 672 670 669 667 667 665 664
792 791 790 789 788 787 787 786 785 783 782 781 780 779 778 777 776 775 774 772 770 769 767 766 765 763 761 759 757 756 755 754 753 753 752 751 750 749 748 747 746 744 743 742 740 738 736 734 731 729 728 726 724 721 718 714 711 707 704 703 702 701 698 695 693 692 690 688 686 684 683 682 681 679 676 674 672 671 670 669 667 665 664 663 662 661
792 791 790 789 788 787 786 785 784 783 782 780 779 778 777 776 775 774 772 771 769 768 766 765 764 762 760 758 756 755 753 752 751 750 749 748 747 747 746 745 743 742 740 739 737 736 734 732 729 727 725 723 720 717 715 712 709 705 702 700 699 698 695 693 692 691 689 687 684 682 681 680 679 677 674 671 669 667 666 666 664 662 661 660 658 657
791 790 789 788 787 786 785 784 783 782 781 779 778 777 776 775 773 772 771 770 768 767 765 764 763 762 760 757 756 754 752 750 748 747 746 746 745 744 743 742 740 739 738 736 734 732 731 729 727 725 723 720 717 713 710 708 707 704 701 698 697 696 693 691 689 688 687 685 683 680 679 678 677 674 671 669 666 664 662 661 660 659 658 657 655 653
791 790 789 788 787 786 785 783 782 781 780 778 777 776 775 773 772 771 770 768 767 766 764 763 762 760 758 757 755 753 752 749 747 746 744 743 742 741 740 739 737 736 735 733 731 729 727 725 724 722 721 718 715 710 706 704 703 702 700 697 696 694 691 688 687 686 685 683 681 679 677 677 674 672 669 666 663 660 658 657 656 655 654 653 652 650
791 790 788 787 786 785 784 783 782 780 779 777 776 774 773 772 772 770 769 767 766 765 763 762 760 758 757 755 753 752 750 748 747 744 743 741 740 738 737 736 735 733 732 730 728 726 724 722 720 718 717 716 713 709 705 702 700 699 698 697 695 693 690 687 684 683 682 680 678 676 675 674 672 670 667 664 660 657 655 653 652 651 650 649 648 646
790 789 788 787 786 785 783 782 781 780 778 777 775 773 772 771 770 769 768 767 765 764 762 761 759 757 755 753 752 750 749 747 745 743 741 740 738 737 735 734 732 730 728 726 725 723 721 718 716 714 713 713 711 708 705 701 698 697 696 695 693 691 689 685 682 681 680 678 676 674 672 671 669 667 666 662 658 654 651 649 647 646 646 645 644 642
789 788 787 786 785 784 783 782 780 779 777 776 774 773 771 770 768 767 766 765 764 762 761 760 758 757 754 752 750 748 747 745 743 741 739 738 737 735 734 732 731 729 727 724 722 720 718 715 712 710 709 709 709 707 705 701 698 696 694 692 690 689 687 684 681 679 677 676 674 672 670 668 667 665 663 661 657 653 649 646 643 642 642 641 640 639